| time (UTC) | temp F | wind direction | speed knots | gust knots | rain 1hr in | rain 24hr in | rain mn in | humidity % | barometer mb |
| 20260507004006 | 56 | 165 | 0.0 | 5.2 | 0.00 | 0.00 | 0.00 | 77 | 1020.5 |
| 20260507003022 | 56 | 134 | 0.0 | 4.3 | 0.00 | 0.00 | 0.00 | 75 | 1020.5 |
| 20260507002506 | 57 | 137 | 1.7 | 4.3 | 0.00 | 0.00 | 0.00 | 75 | 1020.6 |
| 20260507002010 | 57 | 164 | 0.0 | 3.5 | 0.00 | 0.00 | 0.00 | 76 | 1020.5 |
| 20260507001010 | 56 | 240 | 0.0 | 3.5 | 0.00 | 0.00 | 0.00 | 76 | 1020.5 |
| 20260507000513 | 56 | 236 | 0.0 | 3.5 | 0.00 | 0.00 | 0.00 | 78 | 1020.4 |
| 20260507000029 | 56 | 208 | 0.0 | 2.6 | 0.00 | 0.00 | 0.00 | 78 | 1020.5 |
| 20260506235506 | 56 | 250 | 0.0 | 3.5 | 0.00 | 0.00 | 0.00 | 79 | 1020.5 |
| 20260506235005 | 56 | 240 | 0.9 | 4.3 | 0.00 | 0.00 | 0.00 | 77 | 1020.5 |
| 20260506234504 | 56 | 245 | 0.0 | 4.3 | 0.00 | 0.00 | 0.00 | 78 | 1020.5 |
| 20260506234001 | 56 | 167 | 0.0 | 0.9 | 0.00 | 0.00 | 0.00 | 78 | 1020.5 |
| 20260506233503 | 56 | 271 | 0.0 | 5.2 | 0.00 | 0.00 | 0.00 | 79 | 1020.5 |
| 20260506233003 | 56 | 274 | 1.7 | 5.2 | 0.00 | 0.00 | 0.00 | 77 | 1020.5 |
| 20260506232502 | 56 | 185 | 0.0 | 4.3 | 0.00 | 0.00 | 0.00 | 79 | 1020.6 |
| 20260506232003 | 56 | 243 | 0.9 | 4.3 | 0.00 | 0.00 | 0.00 | 78 | 1020.6 |
| 20260506231503 | 56 | 255 | 0.9 | 4.3 | 0.00 | 0.00 | 0.00 | 79 | 1020.6 |
| 20260506231003 | 56 | 178 | 0.0 | 0.9 | 0.00 | 0.00 | 0.00 | 80 | 1020.5 |
| 20260506230504 | 56 | 222 | 0.0 | 1.7 | 0.00 | 0.00 | 0.00 | 80 | 1020.5 |
| 20260506230011 | 56 | 221 | 0.0 | 3.5 | 0.00 | 0.00 | 0.00 | 80 | 1020.6 |
| 20260506225504 | 56 | 221 | 0.0 | 3.5 | 0.00 | 0.00 | 0.00 | 80 | 1020.7 |
| 20260506225002 | 56 | 174 | 0.0 | 2.6 | 0.00 | 0.00 | 0.00 | 80 | 1020.7 |
| 20260506224503 | 56 | 176 | 0.0 | 2.6 | 0.00 | 0.00 | 0.00 | 80 | 1020.6 |
| 20260506224004 | 56 | 174 | 0.9 | 2.6 | 0.00 | 0.00 | 0.00 | 80 | 1020.7 |
| 20260506223502 | 56 | 227 | 0.0 | 0.0 | 0.00 | 0.00 | 0.00 | 81 | 1020.7 |
| 20260506222002 | 55 | 227 | 0.0 | 0.0 | 0.00 | 0.00 | 0.00 | 81 | 1020.8 |
| 20260506221005 | 55 | 229 | 0.0 | 2.6 | 0.00 | 0.00 | 0.00 | 81 | 1020.9 |
| 20260506220503 | 55 | 182 | 0.0 | 2.6 | 0.00 | 0.00 | 0.00 | 81 | 1020.8 |
| 20260506220003 | 55 | 150 | 0.0 | 4.3 | 0.00 | 0.00 | 0.00 | 82 | 1020.8 |
| 20260506215503 | 55 | 226 | 0.0 | 4.3 | 0.00 | 0.00 | 0.00 | 82 | 1020.9 |
| 20260506215006 | 55 | 221 | 0.0 | 3.5 | 0.00 | 0.00 | 0.00 | 83 | 1020.8 |
| 20260506214504 | 55 | 223 | 0.0 | 3.5 | 0.00 | 0.00 | 0.00 | 83 | 1020.9 |
| 20260506214004 | 55 | 229 | 0.0 | 3.5 | 0.00 | 0.00 | 0.00 | 83 | 1020.9 |
| 20260506213505 | 55 | 229 | 0.9 | 3.5 | 0.00 | 0.00 | 0.00 | 83 | 1020.9 |
| 20260506213003 | 55 | 229 | 0.0 | 3.5 | 0.00 | 0.00 | 0.00 | 83 | 1020.8 |
| 20260506212504 | 55 | 229 | 0.0 | 2.6 | 0.00 | 0.00 | 0.00 | 84 | 1020.8 |
| 20260506211502 | 55 | 231 | 0.9 | 6.1 | 0.00 | 0.00 | 0.00 | 83 | 1020.9 |
| 20260506211002 | 55 | 224 | 0.0 | 6.1 | 0.00 | 0.00 | 0.00 | 84 | 1020.9 |
| 20260506210503 | 55 | 236 | 1.7 | 4.3 | 0.00 | 0.00 | 0.00 | 85 | 1020.8 |
| 20260506205503 | 55 | 255 | 0.9 | 4.3 | 0.00 | 0.00 | 0.00 | 84 | 1020.7 |
| 20260506205003 | 55 | 235 | 0.9 | 4.3 | 0.00 | 0.00 | 0.00 | 84 | 1020.8 |
| 20260506204507 | 55 | 252 | 0.9 | 3.5 | 0.00 | 0.00 | 0.00 | 84 | 1020.8 |
| 20260506204003 | 55 | 252 | 0.0 | 3.5 | 0.00 | 0.00 | 0.00 | 84 | 1020.7 |
| 20260506203504 | 55 | 252 | 0.0 | 3.5 | 0.00 | 0.00 | 0.00 | 84 | 1020.6 |
| 20260506203003 | 56 | 226 | 0.9 | 4.3 | 0.00 | 0.00 | 0.00 | 83 | 1020.6 |
| 20260506202506 | 55 | 217 | 0.0 | 4.3 | 0.00 | 0.00 | 0.00 | 84 | 1020.6 |
| 20260506202013 | 55 | 231 | 0.9 | 6.1 | 0.00 | 0.00 | 0.00 | 84 | 1020.6 |
| 20260506201002 | 55 | 240 | 0.9 | 5.2 | 0.00 | 0.00 | 0.00 | 83 | 1020.6 |
| 20260506200502 | 56 | 229 | 1.7 | 5.2 | 0.00 | 0.00 | 0.00 | 83 | 1020.5 |
| 20260506195503 | 56 | 224 | 0.0 | 4.3 | 0.00 | 0.00 | 0.00 | 83 | 1020.5 |
| 20260506195003 | 56 | 226 | 0.0 | 0.0 | 0.00 | 0.00 | 0.00 | 83 | 1020.3 |
| 20260506194508 | 56 | 226 | 0.0 | 0.9 | 0.00 | 0.00 | 0.00 | 84 | 1020.4 |
| 20260506194003 | 56 | 226 | 0.0 | 0.9 | 0.00 | 0.00 | 0.00 | 84 | 1020.3 |
| 20260506193504 | 55 | 225 | 0.0 | 2.6 | 0.00 | 0.00 | 0.00 | 86 | 1020.4 |
| 20260506193011 | 55 | 230 | 0.0 | 3.5 | 0.00 | 0.00 | 0.00 | 85 | 1020.4 |
| 20260506192504 | 55 | 230 | 0.9 | 3.5 | 0.00 | 0.00 | 0.00 | 84 | 1020.4 |
| 20260506192001 | 55 | 229 | 0.0 | 3.5 | 0.00 | 0.00 | 0.00 | 84 | 1020.4 |
| 20260506191514 | 55 | 227 | 0.9 | 3.5 | 0.00 | 0.00 | 0.00 | 84 | 1020.4 |
| 20260506191006 | 55 | 238 | 0.0 | 2.6 | 0.00 | 0.00 | 0.00 | 85 | 1020.3 |
| 20260506190507 | 55 | 238 | 0.0 | 4.3 | 0.00 | 0.00 | 0.00 | 86 | 1020.3 |
| 20260506185502 | 54 | 236 | 0.0 | 4.3 | 0.00 | 0.00 | 0.00 | 87 | 1020.4 |
| 20260506185002 | 54 | 238 | 1.7 | 4.3 | 0.00 | 0.00 | 0.00 | 86 | 1020.3 |
| 20260506184003 | 55 | 240 | 0.0 | 2.6 | 0.00 | 0.00 | 0.00 | 86 | 1020.2 |
| 20260506183503 | 55 | 242 | 0.0 | 1.7 | 0.00 | 0.00 | 0.00 | 87 | 1020.2 |
| 20260506183010 | 54 | 242 | 0.0 | 3.5 | 0.00 | 0.00 | 0.00 | 87 | 1020.2 |
| 20260506182503 | 54 | 241 | 0.0 | 4.3 | 0.00 | 0.00 | 0.00 | 87 | 1020.2 |
| 20260506182010 | 54 | 243 | 0.0 | 4.3 | 0.00 | 0.00 | 0.00 | 87 | 1020.2 |
| 20260506181519 | 55 | 243 | 0.0 | 4.3 | 0.00 | 0.00 | 0.00 | 88 | 1020.1 |
| 20260506181002 | 54 | 243 | 0.0 | 4.3 | 0.00 | 0.00 | 0.00 | 87 | 1020.0 |
| 20260506180510 | 55 | 236 | 0.9 | 4.3 | 0.00 | 0.00 | 0.00 | 87 | 1019.9 |
| 20260506180031 | 55 | 234 | 0.0 | 4.3 | 0.00 | 0.00 | 0.00 | 87 | 1019.7 |
| 20260506175507 | 55 | 230 | 0.0 | 1.7 | 0.00 | 0.00 | 0.00 | 87 | 1019.7 |
| 20260506175003 | 55 | 230 | 0.0 | 3.5 | 0.00 | 0.00 | 0.00 | 86 | 1019.8 |
| 20260506174509 | 55 | 230 | 0.0 | 3.5 | 0.00 | 0.00 | 0.00 | 86 | 1019.8 |
| 20260506174009 | 55 | 224 | 0.0 | 3.5 | 0.00 | 0.00 | 0.00 | 86 | 1019.9 |
| 20260506173503 | 55 | 224 | 0.0 | 3.5 | 0.00 | 0.00 | 0.00 | 87 | 1020.0 |
| 20260506173005 | 55 | 223 | 0.0 | 4.3 | 0.00 | 0.00 | 0.00 | 87 | 1020.1 |
| 20260506172503 | 55 | 223 | 0.9 | 4.3 | 0.00 | 0.00 | 0.00 | 86 | 1020.1 |
| 20260506172003 | 55 | 220 | 0.0 | 2.6 | 0.00 | 0.00 | 0.00 | 87 | 1020.1 |
| 20260506171508 | 55 | 220 | 0.0 | 4.3 | 0.00 | 0.00 | 0.00 | 87 | 1020.1 |
| 20260506171007 | 55 | 220 | 0.0 | 4.3 | 0.00 | 0.00 | 0.00 | 87 | 1020.1 |
| 20260506170506 | 55 | 212 | 0.0 | 1.7 | 0.00 | 0.00 | 0.00 | 88 | 1020.1 |
| 20260506170016 | 55 | 212 | 0.0 | 1.7 | 0.00 | 0.00 | 0.00 | 88 | 1020.0 |
| 20260506165503 | 55 | 212 | 0.0 | 0.9 | 0.00 | 0.00 | 0.00 | 89 | 1019.8 |
| 20260506165006 | 55 | 212 | 0.0 | 0.9 | 0.00 | 0.00 | 0.00 | 89 | 1019.8 |
| 20260506164524 | 55 | 212 | 0.0 | 1.7 | 0.00 | 0.00 | 0.00 | 89 | 1019.8 |
| 20260506164002 | 54 | 212 | 0.0 | 3.5 | 0.00 | 0.00 | 0.00 | 89 | 1019.7 |
| 20260506163505 | 54 | 212 | 0.0 | 3.5 | 0.00 | 0.00 | 0.00 | 89 | 1019.6 |
| 20260506163022 | 54 | 192 | 0.0 | 2.6 | 0.00 | 0.00 | 0.00 | 89 | 1019.5 |
| 20260506162509 | 54 | 192 | 0.0 | 2.6 | 0.00 | 0.00 | 0.00 | 89 | 1019.5 |
| 20260506162007 | 54 | 192 | 0.0 | 0.0 | 0.00 | 0.00 | 0.00 | 89 | 1019.6 |
| 20260506161516 | 54 | 192 | 0.0 | 2.6 | 0.00 | 0.00 | 0.00 | 89 | 1019.5 |
| 20260506161003 | 54 | 192 | 0.0 | 2.6 | 0.00 | 0.00 | 0.00 | 89 | 1019.5 |
| 20260506160505 | 54 | 191 | 0.0 | 0.9 | 0.00 | 0.00 | 0.00 | 89 | 1019.4 |
| 20260506160015 | 54 | 191 | 0.0 | 0.9 | 0.00 | 0.00 | 0.00 | 89 | 1019.5 |
| 20260506155506 | 54 | 191 | 0.0 | 0.0 | 0.00 | 0.00 | 0.00 | 89 | 1019.4 |
| 20260506155007 | 54 | 191 | 0.0 | 0.0 | 0.00 | 0.00 | 0.00 | 90 | 1019.3 |
| 20260506154510 | 54 | 191 | 0.0 | 0.0 | 0.00 | 0.00 | 0.00 | 89 | 1019.5 |
| 20260506154004 | 54 | 191 | 0.0 | 0.0 | 0.00 | 0.00 | 0.00 | 90 | 1019.6 |
| 20260506153506 | 53 | 191 | 0.0 | 0.0 | 0.00 | 0.00 | 0.00 | 89 | 1019.7 |
| 20260506153023 | 53 | 191 | 0.0 | 0.9 | 0.00 | 0.00 | 0.00 | 89 | 1019.6 |
| 20260506152503 | 53 | 191 | 0.0 | 0.9 | 0.00 | 0.00 | 0.00 | 89 | 1019.6 |
| 20260506152006 | 54 | 191 | 0.0 | 0.0 | 0.00 | 0.00 | 0.00 | 89 | 1019.6 |
| 20260506151525 | 53 | 191 | 0.0 | 0.0 | 0.00 | 0.00 | 0.00 | 90 | 1019.5 |
| 20260506151004 | 53 | 191 | 0.0 | 0.0 | 0.00 | 0.00 | 0.00 | 89 | 1019.4 |
| 20260506150024 | 53 | 191 | 0.0 | 0.0 | 0.00 | 0.00 | 0.00 | 90 | 1019.3 |
| 20260506145504 | 54 | 191 | 0.0 | 0.0 | 0.00 | 0.00 | 0.00 | 90 | 1019.5 |
| 20260506145004 | 53 | 191 | 0.0 | 0.0 | 0.00 | 0.00 | 0.00 | 90 | 1019.4 |
| 20260506144504 | 53 | 191 | 0.0 | 0.0 | 0.00 | 0.00 | 0.00 | 90 | 1019.4 |
| 20260506144002 | 53 | 191 | 0.0 | 0.0 | 0.00 | 0.00 | 0.00 | 90 | 1019.5 |
| 20260506143503 | 53 | 191 | 0.0 | 0.0 | 0.00 | 0.00 | 0.00 | 90 | 1019.3 |
| 20260506143003 | 53 | 191 | 0.0 | 0.0 | 0.00 | 0.00 | 0.00 | 89 | 1019.3 |
| 20260506142502 | 53 | 191 | 0.0 | 0.0 | 0.00 | 0.00 | 0.00 | 89 | 1019.3 |
| 20260506142002 | 53 | 191 | 0.0 | 0.0 | 0.00 | 0.00 | 0.00 | 89 | 1019.3 |
| 20260506141504 | 53 | 191 | 0.0 | 0.0 | 0.00 | 0.00 | 0.00 | 89 | 1019.3 |
| 20260506141002 | 53 | 191 | 0.0 | 0.0 | 0.00 | 0.00 | 0.00 | 89 | 1019.3 |
| 20260506140504 | 53 | 191 | 0.0 | 0.0 | 0.00 | 0.00 | 0.00 | 89 | 1019.3 |
| 20260506140007 | 53 | 191 | 0.0 | 0.0 | 0.00 | 0.00 | 0.00 | 90 | 1019.3 |
| 20260506135503 | 53 | 191 | 0.0 | 0.0 | 0.00 | 0.00 | 0.00 | 89 | 1019.4 |
| 20260506135006 | 53 | 191 | 0.0 | 0.0 | 0.00 | 0.00 | 0.00 | 89 | 1019.3 |
| 20260506134519 | 53 | 191 | 0.0 | 0.0 | 0.00 | 0.00 | 0.00 | 90 | 1019.0 |
| 20260506134004 | 53 | 191 | 0.0 | 0.0 | 0.00 | 0.00 | 0.00 | 89 | 1019.2 |
| 20260506132003 | 53 | 191 | 0.0 | 0.0 | 0.00 | 0.00 | 0.00 | 88 | 1018.9 |
| 20260506131504 | 53 | 191 | 0.0 | 0.0 | 0.00 | 0.00 | 0.00 | 88 | 1018.9 |
| 20260506131003 | 53 | 191 | 0.0 | 0.0 | 0.00 | 0.00 | 0.00 | 88 | 1018.6 |
| 20260506130504 | 53 | 191 | 0.0 | 0.0 | 0.00 | 0.00 | 0.00 | 88 | 1018.6 |
| 20260506130005 | 53 | 191 | 0.0 | 0.0 | 0.00 | 0.00 | 0.00 | 88 | 1018.8 |
| 20260506125503 | 53 | 191 | 0.0 | 0.0 | 0.00 | 0.00 | 0.00 | 88 | 1018.8 |
| 20260506125004 | 53 | 191 | 0.0 | 0.0 | 0.00 | 0.00 | 0.00 | 88 | 1018.7 |
| 20260506124513 | 53 | 188 | 0.0 | 0.0 | 0.00 | 0.00 | 0.00 | 88 | 1018.7 |
| 20260506124002 | 53 | 184 | 0.0 | 0.0 | 0.00 | 0.00 | 0.00 | 88 | 1018.7 |
| 20260506123011 | 53 | 187 | 0.0 | 0.0 | 0.00 | 0.00 | 0.00 | 88 | 1018.5 |
| 20260506122508 | 53 | 199 | 0.0 | 0.0 | 0.00 | 0.00 | 0.00 | 88 | 1018.5 |
| 20260506122002 | 53 | 199 | 0.0 | 0.0 | 0.00 | 0.00 | 0.00 | 88 | 1018.5 |
| 20260506121006 | 53 | 199 | 0.0 | 0.0 | 0.00 | 0.00 | 0.00 | 88 | 1018.6 |
| 20260506120503 | 53 | 199 | 0.0 | 0.0 | 0.00 | 0.00 | 0.00 | 88 | 1018.6 |
| 20260506120009 | 53 | 199 | 0.0 | 0.0 | 0.00 | 0.00 | 0.00 | 88 | 1018.5 |
| 20260506115502 | 53 | 199 | 0.0 | 0.0 | 0.00 | 0.00 | 0.00 | 88 | 1018.5 |
| 20260506115002 | 53 | 199 | 0.0 | 0.0 | 0.00 | 0.00 | 0.00 | 88 | 1018.4 |
| 20260506114508 | 54 | 199 | 0.0 | 0.0 | 0.00 | 0.00 | 0.00 | 88 | 1018.3 |
| 20260506114002 | 53 | 199 | 0.0 | 0.0 | 0.00 | 0.00 | 0.00 | 88 | 1018.3 |
| 20260506113505 | 53 | 199 | 0.0 | 0.0 | 0.00 | 0.00 | 0.00 | 88 | 1018.3 |
| 20260506113010 | 54 | 199 | 0.0 | 0.0 | 0.00 | 0.00 | 0.00 | 88 | 1018.3 |
| 20260506112006 | 53 | 199 | 0.0 | 0.0 | 0.00 | 0.00 | 0.00 | 87 | 1018.2 |
| 20260506111513 | 53 | 199 | 0.0 | 0.0 | 0.00 | 0.00 | 0.00 | 88 | 1018.2 |
| 20260506111002 | 53 | 199 | 0.0 | 0.0 | 0.00 | 0.00 | 0.00 | 88 | 1018.2 |
| 20260506110016 | 53 | 199 | 0.0 | 0.0 | 0.00 | 0.00 | 0.00 | 88 | 1018.1 |
| 20260506105507 | 53 | 199 | 0.0 | 0.0 | 0.00 | 0.00 | 0.00 | 88 | 1018.1 |
| 20260506105003 | 53 | 199 | 0.0 | 0.0 | 0.00 | 0.00 | 0.00 | 89 | 1018.0 |
| 20260506104503 | 53 | 199 | 0.0 | 0.0 | 0.00 | 0.00 | 0.00 | 89 | 1018.0 |
| 20260506104002 | 53 | 199 | 0.0 | 0.0 | 0.00 | 0.00 | 0.00 | 89 | 1018.0 |
| 20260506103502 | 53 | 199 | 0.0 | 0.0 | 0.00 | 0.00 | 0.00 | 90 | 1018.0 |
| 20260506103019 | 53 | 199 | 0.0 | 0.0 | 0.00 | 0.00 | 0.00 | 90 | 1017.9 |
| 20260506102507 | 53 | 199 | 0.0 | 0.0 | 0.00 | 0.00 | 0.00 | 90 | 1017.8 |
| 20260506102003 | 53 | 199 | 0.0 | 0.0 | 0.00 | 0.00 | 0.00 | 90 | 1017.8 |
| 20260506101507 | 53 | 199 | 0.0 | 0.9 | 0.00 | 0.00 | 0.00 | 91 | 1017.7 |
| 20260506101002 | 53 | 199 | 0.0 | 0.9 | 0.00 | 0.00 | 0.00 | 91 | 1017.7 |
| 20260506100503 | 53 | 199 | 0.0 | 0.0 | 0.00 | 0.00 | 0.00 | 92 | 1017.7 |
| 20260506095502 | 52 | 199 | 0.0 | 0.0 | 0.00 | 0.00 | 0.00 | 92 | 1017.5 |
| 20260506095005 | 52 | 199 | 0.0 | 0.0 | 0.00 | 0.00 | 0.00 | 92 | 1017.5 |
| 20260506094003 | 52 | 199 | 0.0 | 0.0 | 0.00 | 0.00 | 0.00 | 92 | 1017.5 |
| 20260506093506 | 52 | 199 | 0.0 | 0.0 | 0.00 | 0.00 | 0.00 | 91 | 1017.5 |
| 20260506092503 | 52 | 199 | 0.0 | 0.0 | 0.00 | 0.00 | 0.00 | 91 | 1017.4 |
| 20260506092003 | 52 | 199 | 0.0 | 0.0 | 0.00 | 0.00 | 0.00 | 91 | 1017.4 |
| 20260506091510 | 51 | 199 | 0.0 | 0.0 | 0.00 | 0.00 | 0.00 | 92 | 1017.3 |
| 20260506091003 | 51 | 199 | 0.0 | 0.0 | 0.00 | 0.00 | 0.00 | 92 | 1017.3 |
| 20260506090502 | 51 | 199 | 0.0 | 0.0 | 0.00 | 0.00 | 0.00 | 92 | 1017.3 |
| 20260506090012 | 51 | 199 | 0.0 | 0.0 | 0.00 | 0.00 | 0.00 | 92 | 1017.2 |
| 20260506085503 | 51 | 199 | 0.0 | 0.0 | 0.00 | 0.00 | 0.00 | 92 | 1017.1 |
| 20260506085004 | 51 | 199 | 0.0 | 0.0 | 0.00 | 0.00 | 0.00 | 90 | 1017.0 |
| 20260506083507 | 52 | 199 | 0.0 | 0.0 | 0.00 | 0.00 | 0.00 | 89 | 1016.7 |
| 20260506083019 | 52 | 199 | 0.0 | 0.0 | 0.00 | 0.00 | 0.00 | 89 | 1016.7 |
| 20260506082505 | 53 | 199 | 0.0 | 0.0 | 0.00 | 0.00 | 0.00 | 89 | 1016.7 |
| 20260506082010 | 53 | 199 | 0.0 | 0.0 | 0.00 | 0.00 | 0.00 | 89 | 1016.7 |
| 20260506081528 | 52 | 199 | 0.0 | 0.0 | 0.00 | 0.00 | 0.00 | 90 | 1016.7 |
| 20260506081003 | 52 | 199 | 0.0 | 0.0 | 0.00 | 0.00 | 0.00 | 90 | 1016.7 |
| 20260506080504 | 52 | 199 | 0.0 | 0.0 | 0.00 | 0.00 | 0.00 | 90 | 1016.7 |
| 20260506073506 | 53 | 199 | 0.0 | 0.0 | 0.00 | 0.00 | 0.00 | 88 | 1016.7 |
| 20260506072010 | 53 | 199 | 0.0 | 0.0 | 0.00 | 0.00 | 0.00 | 89 | 1016.8 |
| 20260506071514 | 53 | 199 | 0.0 | 0.0 | 0.00 | 0.00 | 0.00 | 90 | 1016.7 |
| 20260506071006 | 53 | 199 | 0.0 | 0.0 | 0.00 | 0.00 | 0.00 | 89 | 1016.7 |
| 20260506061531 | 54 | 199 | 0.0 | 0.0 | 0.00 | 0.00 | 0.00 | 87 | 1016.2 |
| 20260506061014 | 54 | 199 | 0.0 | 0.0 | 0.00 | 0.00 | 0.00 | 87 | 1016.2 |
| 20260506051003 | 55 | 199 | 0.0 | 0.0 | 0.00 | 0.00 | 0.00 | 86 | 1015.8 |
| 20260506045006 | 56 | 199 | 0.0 | 0.0 | 0.00 | 0.00 | 0.00 | 85 | 1015.6 |
| 20260506044002 | 57 | 199 | 0.0 | 0.0 | 0.00 | 0.00 | 0.00 | 83 | 1015.6 |
| 20260506043503 | 57 | 199 | 0.0 | 0.0 | 0.00 | 0.00 | 0.00 | 83 | 1015.5 |
| 20260506043014 | 57 | 199 | 0.0 | 0.0 | 0.00 | 0.00 | 0.00 | 83 | 1015.6 |
| 20260506042503 | 57 | 199 | 0.0 | 0.0 | 0.00 | 0.00 | 0.00 | 82 | 1015.5 |
| 20260506041515 | 58 | 199 | 0.0 | 0.0 | 0.00 | 0.00 | 0.00 | 82 | 1015.5 |
| 20260506040503 | 58 | 199 | 0.0 | 0.0 | 0.00 | 0.00 | 0.00 | 82 | 1015.5 |
| 20260506040021 | 58 | 199 | 0.0 | 0.0 | 0.00 | 0.00 | 0.00 | 82 | 1015.4 |
| 20260506035507 | 58 | 199 | 0.0 | 0.0 | 0.00 | 0.00 | 0.00 | 82 | 1015.4 |
| 20260506035009 | 59 | 199 | 0.0 | 0.0 | 0.00 | 0.00 | 0.00 | 81 | 1015.3 |
| 20260506034510 | 59 | 199 | 0.0 | 0.0 | 0.00 | 0.00 | 0.00 | 81 | 1015.2 |
| 20260506034007 | 59 | 199 | 0.0 | 0.0 | 0.00 | 0.00 | 0.00 | 80 | 1015.2 |
| 20260506033505 | 59 | 199 | 0.0 | 0.0 | 0.00 | 0.00 | 0.00 | 79 | 1015.2 |
| 20260506033024 | 60 | 199 | 0.0 | 0.0 | 0.00 | 0.00 | 0.00 | 78 | 1015.1 |
| 20260506032506 | 60 | 199 | 0.0 | 0.0 | 0.00 | 0.00 | 0.00 | 78 | 1015.1 |
| 20260506031003 | 61 | 199 | 0.0 | 0.0 | 0.00 | 0.00 | 0.00 | 77 | 1015.0 |
| 20260506025003 | 62 | 199 | 0.0 | 0.0 | 0.00 | 0.00 | 0.00 | 73 | 1014.9 |
| 20260506023003 | 62 | 198 | 0.0 | 0.0 | 0.00 | 0.00 | 0.00 | 71 | 1014.8 |
| 20260506022503 | 62 | 198 | 0.0 | 0.9 | 0.00 | 0.00 | 0.00 | 71 | 1014.7 |
| 20260506022003 | 62 | 198 | 0.0 | 0.9 | 0.00 | 0.00 | 0.00 | 71 | 1014.7 |
| 20260506021002 | 63 | 196 | 0.0 | 0.0 | 0.00 | 0.00 | 0.00 | 71 | 1014.8 |
| 20260506020503 | 62 | 204 | 0.0 | 2.6 | 0.00 | 0.00 | 0.00 | 70 | 1014.8 |
| 20260506020008 | 63 | 204 | 0.0 | 2.6 | 0.00 | 0.00 | 0.00 | 71 | 1014.8 |
| 20260506015506 | 63 | 201 | 0.0 | 0.0 | 0.00 | 0.00 | 0.00 | 70 | 1014.8 |
| 20260506015004 | 63 | 201 | 0.0 | 0.0 | 0.00 | 0.00 | 0.00 | 71 | 1014.8 |
| 20260506014508 | 62 | 201 | 0.0 | 1.7 | 0.00 | 0.00 | 0.00 | 70 | 1014.8 |
| 20260506014002 | 63 | 201 | 0.0 | 1.7 | 0.00 | 0.00 | 0.00 | 71 | 1014.9 |
| 20260506013502 | 63 | 198 | 0.0 | 3.5 | 0.00 | 0.00 | 0.00 | 70 | 1014.8 |
| 20260506010506 | 63 | 219 | 0.0 | 3.5 | 0.00 | 0.00 | 0.00 | 70 | 1014.9 |
| 20260506010003 | 63 | 219 | 0.0 | 3.5 | 0.00 | 0.00 | 0.00 | 70 | 1014.9 |
| 20260506005504 | 63 | 215 | 0.0 | 3.5 | 0.00 | 0.00 | 0.00 | 69 | 1014.9 |
| 20260506005004 | 63 | 169 | 0.0 | 5.2 | 0.00 | 0.00 | 0.00 | 70 | 1014.9 |
| 20260506004508 | 63 | 221 | 0.9 | 5.2 | 0.00 | 0.00 | 0.00 | 71 | 1015.0 |